Location:  
MeteoStar


Sort by weather type Sort by elevation Sort by visibility Sort from west to east north Sort from north to south Alphabetically Sort from strongest wind speed Sort from lowest to highest pressure Sort from highest to lowest dew point temperature Sort coolest temperatures to warmest Sort warm temperatures to coolest
 Metric

Current Observations for United Kingdom sorted by elevation

Cairngorm07:00ZNot Avail.20 1930W 51 Gusting to 64 -34084
Great Dun Fell07:00ZNot Avail.27 2725WNW 26 Gusting to 35 122778
Glen Ogle07:00ZNot Avail.28 N/A30W 16 1850
Lake Vyrnwy07:00ZNot Avail.35 31201013.5W 8 281181
Liscombe07:00ZNot Avail.31 30201017.2WNW 4 271141
Spadeadam06:50ZNot Avail.32 3231009.0W 8 251066
Sennybridge07:00ZIce Pellets31 31121016.2CALM311007
Spadeadam06:50ZFog31 N/A31009.7W 8 935
Loch Glascanoch07:00ZSnow33 3251006.2W 22 Gusting to 30 21869
Bingley07:00ZClear33 32301010.5W 7 27859
Fylingdales07:00ZNot Avail.28 2730W 10 19859
Dunkeswell Aerodrome07:00ZNot Avail.35 32251016.9WNW 6 30826
Shap07:00ZNot Avail.35 30301010.4NW 10 27816
Drumalbin07:00ZNot Avail.30 29301010SW 6 24803
Eskdalemuir07:00ZNot Avail.34 31301009.5WNW 11 26793
Tulloch Bridge07:00ZClear32 31301009.0WNW 6 26777
Warcop Range07:00ZNot Avail.33 33251010.2N 2 33744
Lough Fea07:00ZClear33 32201014.2NW 4 29738
Aviemore07:00ZNot Avail.32 27301006.9SW 4 28721
Capel Curig07:00ZNot Avail.40 30191014W 20 Gusting to 34 30708
Little Rissington07:00ZNot Avail.31 30201014.2W 9 23705
Redesdale07:00ZNot Avail.31 30301009.4W 4 27692
Leeds And Bradford06:50ZPartly Cloudy34 3241009.7W 12 25682
High Wicombe Hqstc07:00ZNot Avail.33 31201014.4NW 4 29669
Cardinham07:00ZShowers nearby39 33251018.2WNW 11 32656
Bristol / Lulsgate 06:50ZClear34 32121015.6W 7 28620
Kenley07:00ZClear33 32301014.0WNW 6 27557
Glenanne07:00ZLight Snow Showers33 32101014WNW 9 25528
Luton Airport 06:50ZClear34 32121012.6W 12 25524
Ballypatrick Forest07:00ZClear36 35201012.5WNW 7 30511
Lyneham07:00ZNot Avail.34 31301015.0W 7 28475
Aboyne07:00ZNot Avail.35 27251005.9SW 10 27459
Inverbervie07:00ZNot Avail.31 25301005.7W 6 25439
Aberporth07:00ZNot Avail.42 33201016.0WNW 19 Gusting to 27 33436
Larkhill07:00ZNot Avail.34 31201015.4W 5 29433
Saint Bees Head07:00ZNot Avail.39 34251010.7NW 20 Gusting to 26 29406
Boscombe Down06:50ZClear32 32201014.5WNW 7 25406
Odiham06:50ZMostly Cloudy36 32151013.5WNW 7 30403
Langdon Bay07:00ZNot Avail.36 33301012.4NW 16 26383
Nottingham Weather Centre07:00ZLight Showers34 32101012.4WSW 8 27383
Dundrennan07:00ZNot Avail.35 34201010.2WNW 14 26374
Charterhall07:00ZNot Avail.30 28301008.2SSW 6 24367
Church Lawford07:00ZNot Avail.31 30121013.5SW 3 31351
Stansted Airport06:50ZClear32 3091012.5W 2 32347
Guernsey Airport06:50ZClear43 32251016.3NW 12 37334
Shobdon07:00ZNot Avail.31 31201014.7NW 4 27324
Birmingham / Airport06:50ZNot Avail.34 3041013.4WSW 5 29324
Aberdaron07:00ZNot Avail.42 33251016NW 21 Gusting to 31 33311
East Midlands06:50ZLight Snow34 3241012.4WSW 10 26308
Middle Wallop06:50ZClear34 3291014.4NW 4 30298
Brize Norton06:50ZNot Avail.32 30201014.4WSW 4 28288
Camborne07:00ZMostly Cloudy44 32251019.4NW 13 38285
Fairford Royal Air Force Base06:56ZClear30 27121014.7CALM30285
Wattisham06:50ZMostly Cloudy28 27121011.4W 5 22285
Bedford07:00ZNot Avail.32 30251013.2WSW 6 26278
Wittering06:50ZClear34 30301011.4W 12 25275
Jersey Airport06:50ZClear43 3641016.3NW 12 37275
Lerwick07:00ZRain/Drizzle41 367991.4W 20 Gusting to 37 32269
Keswick07:00ZNot Avail.38 34251010.5WNW 7 33265
Altnaharra07:00ZClear36 32181003WSW 10 29265
Newcastle 06:50ZClear34 32251008.3W 13 25265
Belfast / Aldergrove Airport06:50ZClear34 34251013.3W 13 25265
Culdrose06:50ZClear41 30201019.3WNW 12 34255
Rhyl07:00ZNot Avail.40 35201012.9W 13 32252
Shawbury06:50ZMostly Cloudy34 30201012.3WSW 7 28249
Alderney / Channel Island06:50ZPartly Cloudy43 N/A101016.2NW 19 232
Manchester Airport06:50ZLight Rain36 3441012.3N 3 36226
Waddington06:50ZNot Avail.34 30121011.3WSW 7 28223
Cranwell06:50ZNot Avail.32 30121011.3WSW 9 24219
Cardiff-Wales Airport06:50ZClear36 32121016.3WNW 9 29219
Aberdeen / Dyce06:50ZClear36 27251004.3W 11 28213
Farnborough07:00ZNot Avail.34 33151014.2W 4 30213
Portglenone07:00ZNot Avail.35 33201013.2W 6 30209
Trawscoed07:00ZClear35 34171015.2SE 3 35206
Benson06:50ZClear28 27101014.4SE 1 28206
London / Gatwick Airport06:50ZNot Avail.34 3441013.3N 2 34203
Loftus Samos07:00ZNot Avail.33 31301008.7W 15 23190
Fair Isle07:00ZLight Drizzle42 377994.2WSW 26 Gusting to 42 32187
Manston07:00ZNot Avail.36 34251012.7WNW 7 30180
Isle Of Portland07:00ZNot Avail.42 37201016.0NW 15 Gusting to 25 34173
Herstmonceux07:00ZNot Avail.33 32181013.7NNW 6 27170
Castlederg07:00ZLight Freezing Rain35 3551015.7WNW 7 Gusting to 18 29167
St Athan Royal Air Force Base06:50ZCloudy37 34201015.2WNW 9 30164
Plymouth07:00ZNot Avail.37 35201018.2WNW 7 32164
Milford Haven07:00ZNot Avail.39 35251017.2NW 12 32144
Edinburgh Airport06:50ZNot Avail.32 30251008.2WSW 8 25134
Leeming06:50ZClear30 2891009.2ESE 4 26131
Wick06:50ZClear36 32131001.2W 13 27127
Northolt06:50ZNot Avail.30 3071013.3WNW 3 30124
Tees-Side06:50ZNot Avail.28 27251009.2SW 7 21121
Mumbles07:00ZNot Avail.39 35251017W 8 33114
Strathallan07:00ZNot Avail.33 30301008.2WSW 6 27114
Pershore07:00ZNot Avail.31 31251014.9SSW 3 31104
Humberside06:50ZClear34 3251010.2SW 10 26101
Scilly; Saint MaryS07:00ZClear45 33301020.9NW 19 Gusting to 26 37101
Exeter Airport06:50ZClear32 3091016.2N 3 3298
Carlisle07:00ZNot Avail.33 31301010N 3391
Topcliffe Royal Air Force Base 06:50ZClear23 21121010.2SSW 4 1891
Prestwick Rnas07:00ZNot Avail.38 34301010.5WNW 7 3385
Liverpool Airport 06:50ZMostly Cloudy37 36121012.2ENE 4 3485
London / Heathrow Airport06:50ZClear36 34181014.2W 6 3178
Marham06:50ZClear28 2781011.2S 2 2875
Boulmer06:50ZClear34 30301007.2SW 8 2775
Yeovilton06:50ZClear34 32121016.2WSW 6 2975
Scatsa / Shetland Island06:50ZLight Rain43 3625990.2W 19 3572
Weybourne07:00ZNot Avail.34 33141011SW 11 2668
Kirkwall Airport06:50ZShowers nearby39 3612998.2W 16 3068
Prestwick Airport06:50ZPartly Cloudy39 34251011.2NW 8 3365
Isle Of Man / Ronaldsway Airport06:50ZMostly Cloudy41 32251011.2WNW 19 Gusting to 29 3255
Saint Catherines Point07:00ZNot Avail.39 34201015NW 6 3552
Sule Skerry07:00ZNot Avail.43 397998.9WNW 31 Gusting to 47 3252
Linton-On-Ouse06:50ZClear32 30151010.2S 3 3252
Bridlington Mrsc07:00ZNot Avail.32 31301009.2W 6 2649
Baltasound07:00ZLight Showers41 384988.9W 24 Gusting to 35 3149
Walney Island07:00ZShowers39 3741010.9W 22 Gusting to 32 2949
Southend-On-Sea 06:50ZMostly Cloudy34 30181012.2W 7 2849
Norwich Weather Centre06:50ZNot Avail.28 2791011.2W 6 2145
Lossiemouth06:50ZLight Showers34 3291004.2WSW 15 2442
Leuchars06:50ZNot Avail.34 30251007.2W 10 2639
Tiree06:50ZClear41 28151010.1NW 20 3239
Aultbea07:00ZClear39 3691006.2W 12 Gusting to 25 3236
West Freugh07:00ZClear36 34251011.9WNW 8 Gusting to 31 3036
Bournemouth Airport06:50ZNot Avail.32 32101015.2WNW 7 2536
South Uist Range07:00ZClear41 34131009.0NW 20 Gusting to 37 3232
Mildenhall Royal Air Force Base06:56ZClear31 31251012.2WSW 6 2532
Lakenheath Royal Air Force Base06:56ZClear30 30201011.9CALM3032
Hawarden07:00ZLight Showers40 36111012.7W 5 3632
Blackpool Airport06:50ZShowers nearby41 3651011.1WNW 12 3432
Stornoway06:50ZShowers nearby37 34251005.1W 20 2729
Inverness / Dalcross06:50ZPartly Cloudy34 32251006.1WSW 10 2629
Southampton / Weather Centre06:50ZNot Avail.34 32101015.1N 2 3429
Eglinton / Londonderr06:50ZPartly Cloudy39 3641014.1W 5 3529
Donna Nook07:00ZNot Avail.33 31101010.4SW 7 2726
Crosby07:00ZClear40 37201011.9NNW 14 3226
Glasgow Airport06:50ZClear32 30251010.1WSW 4 2826
Chivenor07:00ZClear43 34301017.0NW 10 3726
Coningsby Royal Air Force Base06:50ZNot Avail.32 28151011.1WSW 7 2522
Kinloss06:50ZPartly Cloudy36 32301005.1WSW 15 2722
Leconfield06:50ZClear34 32151009.1WSW 7 2819
Benbecula06:50ZShowers nearby41 34251009.1NW 24 3119
Sumburgh Cape 06:50ZLight Showers41 376992.1W 23 Gusting to 37 3116
London City Airport06:50ZClear37 3241013.1WSW 8 3116
Belfast / Harbour06:50ZMostly Cloudy36 3441013.1S 5 3216
Thorney Island07:00ZNot Avail.36 34251014.7NW 7 3013
Tain Range07:00ZClear36 33201004.7W 15 2713
Gravesend-Broadness07:00ZNot Avail.36 34301013.2WSW 10 299
Wainfleet06:50ZNot Avail.31 3181011.0W 8 249
Holbeach07:00ZNot Avail.32 31131011.5WSW 7 259
Pembrey Sands06:50ZClear41 36201016.1W 17 339
Lydd Airport 06:50ZClear32 30181013.1NW 7 259
Shoeburyness07:00ZNot Avail.34 32151013WNW 8 276
Shoreham Airport07:00ZNot Avail.34 3241014.0N 7 286
Valley06:50ZPartly Cloudy41 34181014.1WNW 19 Gusting to 29 323

Atlantic
Tropical Watch